This is the latest recevied weather packets stored in our database for station/object KC0OOO-WX. If no packets are shown the sender has not sent any weather packets the latest 10 day(s).
| Time | Temp. | Humidity | Pressure | Rain* | Wind** | Luminosity | Snow |
|---|---|---|---|---|---|---|---|
| 1777184452 | 6.11° C | 84% | 1015.6 hPa | 0.51 mm | - | - | - |
| 1777183853 | 6.11° C | 83% | 1015.6 hPa | 0.25 mm | - | - | - |
| 1777183252 | 6.11° C | 82% | 1015.6 hPa | 0 mm | - | - | - |
| 1777182652 | 6.11° C | 81% | 1015.6 hPa | 0.51 mm | - | - | - |
| 1777182052 | 6.11° C | 80% | 1015.6 hPa | 0.51 mm | - | - | - |
| 1777181452 | 6.67° C | 77% | 1015.6 hPa | 0.25 mm | - | - | - |
| 1777180822 | 6.67° C | 76% | 1015.6 hPa | 0.25 mm | - | - | - |
| 1777180192 | 6.67° C | 74% | 1015.9 hPa | 0 mm | - | - | - |
| 1777179592 | 7.22° C | 72% | 1015.9 hPa | 0 mm | - | - | - |
| 1777178992 | 7.78° C | 70% | 1015.6 hPa | 0 mm | - | - | - |
| 1777178392 | 7.78° C | 68% | 1015.6 hPa | 0 mm | - | - | - |
| 1777177792 | 7.78° C | 65% | 1015.6 hPa | 0 mm | - | - | - |
| 1777177192 | 8.33° C | 63% | 1015.6 hPa | 0 mm | - | - | - |
| 1777176592 | 8.33° C | 60% | 1015.2 hPa | 0 mm | - | - | - |
| 1777175992 | 8.89° C | 56% | 1015.2 hPa | 0 mm | - | - | - |
| 1777175392 | 10° C | 54% | 1014.6 hPa | 0 mm | - | - | - |
| 1777174762 | 10.56° C | 45% | 1014.6 hPa | 0 mm | - | - | - |
| 1777174162 | 11.11° C | 42% | 1014.2 hPa | 0 mm | - | - | - |
| 1777173562 | 11.11° C | 40% | 1014.2 hPa | 0 mm | - | - | - |
| 1777172962 | 11.11° C | 40% | 1013.5 hPa | 0 mm | - | - | - |
| 1777172362 | 11.67° C | 40% | 1013.5 hPa | 0 mm | - | - | - |
| 1777171732 | 12.22° C | 36% | 1013.2 hPa | 0 mm | - | - | - |
| 1777171102 | 12.78° C | 31% | 1013.2 hPa | 0 mm | - | - | - |
| 1777170502 | 12.78° C | 30% | 1012.9 hPa | 0 mm | - | - | - |
| 1777169902 | 12.78° C | 29% | 1012.9 hPa | 0 mm | - | - | - |
* Rain latest hour (hover to see other rain measurements)
** Current wind speed in m/s (hover to see current wind gust speed)